{"data":{"norad_id":58875,"epoch":"2026-05-25T02:34:53.984064Z","epoch_age_seconds":58966,"freshness":"FRESH","line1":"1 58875U 24019Y   26145.10756926 -.00000113  00000+0  54168-5 0  9997","line2":"2 58875  43.0010 177.0016 0001260 275.4921  84.5787 15.27574920130751","mean_motion":15.2757492,"eccentricity":0.000126,"inclination_deg":43.001,"raan_deg":177.0016,"arg_perigee_deg":275.4921,"mean_anomaly_deg":84.5787,"bstar":5.4168e-6,"rev_number":13075,"period_min":94.267062200786,"perigee_km":482.19979606459,"apogee_km":483.92881879406,"semimajor_km":6861.2013074293,"source":"CELESTRAK","updated_at":"2026-05-25T13:38:18.781398Z"}}